Omaha Offutt, NE

7:33 PM CDT on June 25, 2017 (GMT -0500)
Offutt Air Force Base

Weather History for KOFF - March, 2013

Change the Weather History Date:

Thursday, March 28, 2013

  Actual Average Record
Temperature  
Mean Temperature 40 °F -  
Max Temperature 60 °F 54 °F 77 °F (2012)
Min Temperature 21 °F 33 °F 21 °F (2013)
Degree Days  
Heating Degree Days 25    
Moisture  
Dew Point 28 °F    
Average Humidity 66    
Maximum Humidity 99    
Minimum Humidity 31    
Precipitation  
Precipitation 0.00 in - - ()
Sea Level Pressure  
Sea Level Pressure 30.23 in    
Wind  
Wind Speed 5 mph (East)    
Max Wind Speed 7 mph    
Max Gust Speed -    
Visibility 10 miles    
Events      
Averages and records for this station are not official NWS values.
T = Trace of Precipitation, MM = Missing Value Source: NWS Daily Summary

Daily Weather History Graph

Daily Weather History Graph

Search for Another Location

Airport or City:

Trip Planner

Search our weather history database for the weather conditions in past years. The results will help you decide how hot, cold, wet, or windy it might be!

Date:

Astronomy

Mar. 28, 2013 Rise Set
Actual Time 7:13 AM CDT 7:44 PM CDT
Civil Twilight 6:45 AM CDT 8:12 PM CDT
Nautical Twilight 6:12 AM CDT 8:45 PM CDT
Astronomical Twilight 5:39 AM CDT 9:18 PM CDT
Moon 9:39 PM CDT (3/28) 7:40 AM CDT (3/28)
Length of Visible Light 13h 26m
Length of Day
12h 31m
Full, 98% of the Moon is Illuminated
Mar 28
Full
Apr 2
Last Quarter
Apr 10
New
Apr 18
First Quarter
Apr 25
Full

Hourly Weather History & Observations

Time (CDT) Temp. Windchill Dew Point Humidity Pressure Visibility Wind Dir Wind Speed Gust Speed Precip Events Conditions
12:55 AM 29.7 °F 22.8 °F 27.7 °F 92% 30.28 in 10.0 mi ESE 6.9 mph - N/A   Clear
1:55 AM 27.0 °F 21.6 °F 26.4 °F 98% 30.27 in 10.0 mi East 4.6 mph - N/A   Clear
2:55 AM 25.9 °F 20.3 °F 25.5 °F 99% 30.27 in 10.0 mi East 4.6 mph - N/A   Clear
3:55 AM 25.3 °F 21.1 °F 25.2 °F 99% 30.26 in 10.0 mi East 3.5 mph - N/A   Clear
4:55 AM 22.5 °F 16.3 °F 22.3 °F 99% 30.25 in 10.0 mi East 4.6 mph - N/A   Clear
5:55 AM 22.6 °F 15.3 °F 22.5 °F 99% 30.25 in 10.0 mi East 5.8 mph - N/A   Clear
6:55 AM 21.0 °F 16.2 °F 20.8 °F 99% 30.27 in 10.0 mi East 3.5 mph - N/A   Clear
7:55 AM 25.9 °F 19.2 °F 25.5 °F 99% 30.27 in 10.0 mi East 5.8 mph - N/A   Clear
8:55 AM 36.5 °F 31.8 °F 32.0 °F 84% 30.28 in 10.0 mi ESE 5.8 mph - N/A   Clear
9:55 AM 41.4 °F 37.6 °F 30.7 °F 66% 30.28 in 10.0 mi SE 5.8 mph - N/A   Clear
10:55 AM 45.3 °F 42.3 °F 30.6 °F 56% 30.27 in 10.0 mi Variable 5.8 mph - N/A   Clear
11:55 AM 49.8 °F - 30.9 °F 48% 30.27 in 10.0 mi NE 3.5 mph - N/A   Clear
12:55 PM 54.5 °F - 30.7 °F 40% 30.24 in 10.0 mi ENE 4.6 mph - N/A   Scattered Clouds
1:55 PM 57.7 °F - 30.0 °F 35% 30.22 in 10.0 mi Variable 3.5 mph - N/A   Overcast
2:55 PM 59.0 °F - 29.3 °F 32% 30.20 in 10.0 mi Calm Calm - N/A   Scattered Clouds
3:55 PM 59.2 °F - 28.8 °F 31% 30.18 in 10.0 mi Calm Calm - N/A   Overcast
4:40 PM 59.0 °F - 28.4 °F 31% 30.17 in 2.5 mi East 4.6 mph - N/A   Haze
4:55 PM 59.0 °F - 28.9 °F 32% 30.17 in 10.0 mi East 3.5 mph - N/A   Partly Cloudy
5:55 PM 59.0 °F - 28.0 °F 31% 30.17 in 10.0 mi East 5.8 mph - N/A   Scattered Clouds
6:55 PM 56.7 °F - 30.4 °F 37% 30.18 in 10.0 mi East 4.6 mph - N/A   Overcast
7:55 PM 51.4 °F - 30.4 °F 44% 30.20 in 10.0 mi NNE 4.6 mph - N/A   Overcast
8:55 PM 42.1 °F 40.2 °F 30.6 °F 64% 30.21 in 10.0 mi NE 3.5 mph - N/A   Partly Cloudy
9:55 PM 38.3 °F - 30.7 °F 74% 30.22 in 10.0 mi Calm Calm - N/A   Clear
10:55 PM 32.7 °F 26.4 °F 29.1 °F 87% 30.23 in 9.0 mi NNE 6.9 mph - N/A   Clear
11:55 PM 41.5 °F 39.6 °F 31.8 °F 68% 30.22 in 10.0 mi East 3.5 mph - N/A   Clear